Regional Weather Roundup
Issued by NWS

Home | Current Version | Previous Version | Graphics & Text | Print | Product List | Glossary On
Versions: 1 2 3 4 5 6 7 8 9 10 11 12 13 14 15 16 17 18 19 20 21 22 23 24 25 26 27 28 29 30 31 32 33 34 35 36 37 38 39 40 41 42 43 44 45 46 47 48 49 50
000
ASUS45 KTFX 241410
RWRMT
MONTANA REGIONAL WEATHER ROUNDUP
NATIONAL WEATHER SERVICE GREAT FALLS MT
800 AM MDT TUE MAY 24 2016

NOTE: "FAIR" INDICATES FEW OR NO CLOUDS BELOW 12000 FEET WITH NO
SIGNIFICANT WEATHER AND/OR OBSTRUCTIONS TO VISIBILITY.

MTZ001>007-043-241500-
WEST OF THE DIVIDE

CITY           SKY/WX    TMP DP  RH WIND       PRES   REMARKS
KALISPELL      CLOUDY    45  44  97 CALM      29.92S
MISSOULA       LGT RAIN  44  41  89 CALM      29.94R
BUTTE          LGT RAIN  36  34  92 S3        29.93S
MULLAN PASS    LGT RAIN  35  35 100 NW3       29.90R VSB<1/4
ANACONDA         N/A     39  37  93 SE3       29.92R
DEER LODGE       N/A     41  39  93 CALM      29.93S
EUREKA           N/A     45  43  93 CALM      29.94S
HAMILTON         N/A     45  43  93 CALM      29.92R
LIBBY            N/A     46  45  93 CALM      29.93R
PLAINS           N/A     46  43  90 E1        29.94R
$$

MTZ008-052>055-241500-
SOUTHWEST MONTANA

CITY           SKY/WX    TMP DP  RH WIND       PRES   REMARKS
BOZEMAN        LGT RAIN  43  39  86 CALM      29.93R
DILLON         SUNNY     40  35  83 SE3       29.91R
ENNIS          CLOUDY    39  36  87 CALM      29.97S
TWIN BRIDGES     N/A     41  36  82 CALM      29.92R
$$

MTZ009-010-012-014-046-048-049-054-241500-
EAST SLOPES AND CENTRAL MONTANA

CITY           SKY/WX    TMP DP  RH WIND       PRES   REMARKS
CUT BANK       CLOUDY    43  40  89 W6        29.89R
GREAT FALLS    CLOUDY    43  41  93 W6        29.91S
MALMSTROM AFB  PTSUNNY   44  41  89 NW7       29.91S
HELENA         PTSUNNY   46  41  82 CALM      29.92S
CHOTEAU          N/A     43  41  93 SW6       29.91R
CONRAD           N/A     44  44 100 W3        29.93R
$$

MTZ011-013-016-021-045-047-050-051-241500-
NORTH CENTRAL MONTANA

CITY           SKY/WX    TMP DP  RH WIND       PRES   REMARKS
HAVRE          CLOUDY    48  43  82 W10       29.87R
LEWISTOWN      CLOUDY    45  39  79 W6        29.91R
N BAR RANCH      N/A     45  36  70 VRB3      29.92R
CHINOOK          N/A     48  45  87 W9        29.86R
$$

MTZ017>020-022>027-061-062-241500-
NORTHEAST MONTANA

CITY           SKY/WX    TMP DP  RH WIND       PRES   REMARKS
GLASGOW        CLOUDY    51  43  74 W17       29.84R
JORDAN           N/A     49  42  77 W12       29.88R
SIDNEY         SUNNY     54  44  69 S9        29.88R
WOLF POINT     CLOUDY    55  44  66 W13       29.86R
PLENTYWOOD       N/A     52  45  76 SW12      29.84R
POPLAR           N/A     54  43  66 SW14      29.86S
SCOBEY           N/A     49  37  63 SW14      29.82R
$$

MTZ028>42-056>058-241500-
SOUTHCENTRAL AND SOUTHEAST MONTANA

CITY           SKY/WX    TMP DP  RH WIND       PRES   REMARKS
BAKER          MOSUNNY   53  41  63 W7        29.91R
BILLINGS       CLOUDY    48  40  73 CALM      29.92R
LIVINGSTON     CLOUDY    45  36  70 W7        29.91R
MILES CITY     CLOUDY    51  40  65 NW6       29.91R
FORSYTH          N/A     50  43  76 W3        29.91R
$$

REGIONAL REPORTS...DAKOTAS

CITY           SKY/WX    TMP DP  RH WIND       PRES   REMARKS
WILLISTON      MOSUNNY   55  43  63 SW8       29.87R
MINOT          SUNNY     62  44  51 W5        29.85R
DICKINSON      SUNNY     55  42  61 NW9       29.88R
BEACH            N/A     54  45  71 W12       29.93R
CROSBY         CLOUDY    52  46  82 SW15      29.86R
WATFORD CITY     N/A     55  41  58 W9        29.88S
BISMARCK       SUNNY     59  45  59 SW5       29.87R
GRAND FORKS    MOSUNNY   66  54  65 CALM      29.79S
FARGO          PTSUNNY   68  50  52 SE14      29.80S
BUFFALO SD       N/A     56  41  57 N9        29.84S
RAPID CITY     SUNNY     59  36  42 N9        29.92R
$$

REGIONAL REPORTS...WYOMING/IDAHO/WASHINGTON

CITY           SKY/WX    TMP DP  RH WIND       PRES   REMARKS
GILLETTE         N/A     51  37  58 N6        29.91S
SHERIDAN       SUNNY     49  37  63 CALM      29.92R
BUFFALO WY       N/A    N/A N/A N/A MISG      29.92S
CODY           CLOUDY    45  36  70 CALM      29.91S
YELLOWSTONE LA   N/A     37  28  70 CALM      29.97S
IDAHO FALLS    SUNNY     44  38  79 N5        29.87S
SALMON         CLOUDY    41  36  81 N3        29.91R
BOISE          MOSUNNY   49  41  74 SW3       29.86R
SPOKANE        CLOUDY    50  45  83 E5        29.89R
$$

REGIONAL REPORTS...ALBERTA

CITY           SKY/WX    TMP DP  RH WIND       PRES   REMARKS
EDMONTON       CLOUDY    48  41  76 SE5       29.87R
CALGARY        PTSUNNY   46  39  76 SW3       29.86S
LETHBRIDGE     PTSUNNY   46  43  87 W8        29.88R
MEDICINE HAT   LGT RAIN  46  46 100 NW9       29.85R FOG
WATERTON GATE    N/A     43  37  81 S6          N/A
MILK RIVER       N/A     45  41  87 NW2         N/A
ONEFOUR          N/A     45  43  93 NW15        N/A
$$

REGIONAL REPORTS...SASKATCHEWAN

CITY           SKY/WX    TMP DP  RH WIND       PRES   REMARKS
SWIFT CURRENT  CLOUDY    48  46  93 MISG      29.77R
REGINA         MOSUNNY   54  45  71 S9        29.77R
SASKATOON      LGT RAIN  48  48 100 NE16G23   29.82R
CYPRESS HILLS    N/A     43  41  93 NW7         N/A
VAL MARIE        N/A     48  45  87 W9          N/A
ROCKGLEN         N/A     48  45  87 W12         N/A
ASSINIBOIA       N/A     50  48  93 N2          N/A
$$



USA.gov is the U.S. government's official web portal to all federal, state and local government web resources and services.